Find Solidaridad 1

NORAD ID: 22911 Int'l Des: 1993-073 Owner: TELMX Country: MX operational
HEOCIRCULARGSO

Live-Position

3D-Globus wird geladen...

Über Solidaridad 1

Beschreibung wird geladen...

Nächste Überflüge

Passes for default location (London). Set your location on the main map for personalized predictions.

Höhenverlauf

Loading altitude history...

Zweizeiliger Elementsatz

1 22911U 93073A 26106.27808803 -.00000105 00000-0 00000+0 0 9994
2 22911 14.3627 2.8532 0007341 271.8595 284.0840 1.00279931117245
Epoch: 16. Apr. 2026 • Age: 29 hours

Aktueller Status

Höhe 35756.2 km
Geschwindigkeit 3.08 km/s
Subsatellitenpunkt -14.37°S, 105.71°W
Startdatum 20. Nov. 1993
Alter 32.4 years
Typ other

Technische Details

Klassifizierung Payload
Masse 2776.00 kg
Trockenmasse 1291.00 kg
Gesamtmasse 2776.00 kg
Länge 3.80 m
Durchmesser 2.80 m
Spannweite 21.00 m
Form Box + 2 Pan
Hersteller HSES
Bus-Typ HS-601
Phasenstatus Renamed
Besitzer/Staat TELMX/MX

Most Searched